GW7264 Weather Reports


time (UTC)temp
C
wind
direction
speed
KPH
gust
KPH
rain 1hr
cm
rain 24hr
cm
rain mn
cm
humidity
%
barometer
mb
20260509235440 13 129 4.8 11.3 0.00 0.05 0.05 83 1004.5
20260509234415 13 122 3.2 12.9 0.00 0.05 0.05 82 1004.4
20260509233430 13 113 3.2 12.9 0.00 0.05 0.05 82 1004.5
20260509232429 14 108 3.2 9.7 0.00 0.05 0.05 81 1004.4
20260509231401 14 135 3.2 9.7 0.00 0.05 0.05 81 1004.6
20260509230343 14 122 3.2 9.7 0.00 0.05 0.05 80 1004.5
20260509225324 14 117 3.2 9.7 0.00 0.05 0.05 80 1004.5
20260509224343 14 206 1.6 11.3 0.00 0.05 0.05 80 1004.6
20260509223348 14 178 3.2 14.5 0.00 0.05 0.05 79 1004.6
20260509222323 14 124 4.8 14.5 0.00 0.05 0.05 79 1004.6
20260509221301 14 148 4.8 14.5 0.00 0.05 0.05 80 1004.4
20260509220316 13 152 3.2 11.3 0.00 0.05 0.05 82 1004.4
20260509214122 13 137 4.8 12.9 0.00 0.05 0.05 85 1004.7
20260509213142 13 107 4.8 14.5 0.00 0.05 0.05 85 1004.6
20260509205849 12 135 8.0 17.7 0.00 0.05 0.05 87 1005.0
20260509204850 12 114 6.4 17.7 0.00 0.05 0.05 87 1005.0
20260509203842 12 72 6.4 16.1 0.00 0.05 0.05 87 1005.2
20260509202852 12 107 4.8 16.1 0.00 0.05 0.05 87 1005.3
20260509201838 12 117 6.4 16.1 0.00 0.05 0.05 87 1005.3
20260509200856 12 112 4.8 14.5 0.00 0.05 0.05 88 1005.4
20260509195907 12 127 6.4 12.9 0.00 0.05 0.05 88 1005.4
20260509194845 11 105 6.4 17.7 0.00 0.05 0.05 88 1005.5
20260509193816 11 110 8.0 17.7 0.00 0.05 0.05 88 1005.7
20260509192741 11 115 8.0 16.1 0.00 0.05 0.05 88 1005.8
20260509191720 11 117 4.8 16.1 0.00 0.05 0.05 89 1006.0
20260509190716 11 157 6.4 14.5 0.00 0.05 0.05 90 1006.0
20260509185706 11 128 6.4 17.7 0.00 0.05 0.05 91 1006.2
20260509184715 10 110 8.0 17.7 0.00 0.05 0.05 90 1006.3
20260509183644 10 94 4.8 16.1 0.00 0.05 0.05 91 1006.4
20260509182612 10 108 6.4 14.5 0.00 0.05 0.05 91 1006.3
20260509181622 10 105 6.4 14.5 0.00 0.05 0.05 92 1006.4
20260509180611 10 103 6.4 14.5 0.00 0.05 0.05 92 1006.4
20260509175633 10 131 3.2 9.7 0.00 0.05 0.05 93 1006.5
20260509174648 9 140 4.8 9.7 0.00 0.05 0.05 92 1006.6
20260509173628 9 67 3.2 12.9 0.00 0.03 0.05 92 1006.6
20260509172553 9 89 3.2 12.9 0.00 0.03 0.03 91 1006.7
20260509170355 10 58 4.8 9.7 0.00 0.00 0.03 89 1006.9
20260509164209 10 86 3.2 11.3 0.00 0.00 0.00 88 1007.1
20260509163150 10 140 4.8 14.5 0.00 0.00 0.00 88 1007.3
20260509162200 10 105 6.4 14.5 0.00 0.00 0.00 87 1007.3
20260509161218 10 113 4.8 12.9 0.00 0.00 0.00 87 1007.5
20260509160157 10 79 6.4 14.5 0.00 0.00 0.00 87 1007.5
20260509155142 10 105 4.8 14.5 0.00 0.00 0.00 87 1007.7
20260509153031 10 124 8.0 16.1 0.00 0.00 0.00 86 1008.0
20260509152011 9 133 6.4 16.1 0.00 0.00 0.00 86 1008.0
20260509151029 9 126 4.8 11.3 0.00 0.00 0.00 86 1008.3
20260509150030 9 98 3.2 19.3 0.00 0.00 0.00 86 1008.3
20260509145054 9 117 8.0 19.3 0.00 0.00 0.00 85 1008.2
20260509142908 9 115 8.0 17.7 0.00 0.00 0.00 84 1008.4
20260509141933 9 110 6.4 16.1 0.00 0.00 0.00 83 1008.4
20260509140950 9 130 8.0 16.1 0.00 0.00 0.00 84 1008.3
20260509135937 8 130 4.8 14.5 0.00 0.00 0.00 84 1008.4
20260509134910 8 138 6.4 12.9 0.00 0.00 0.00 84 1008.6
20260509133918 8 108 4.8 11.3 0.00 0.00 0.00 81 1008.5
20260509132935 8 132 3.2 14.5 0.00 0.00 0.00 80 1008.5
20260509131915 8 103 4.8 14.5 0.00 0.00 0.00 79 1008.6
20260509130857 7 72 4.8 11.3 0.00 0.00 0.00 79 1008.5
20260509125848 7 105 3.2 9.7 0.00 0.00 0.00 79 1008.6
20260509124830 7 96 4.8 9.7 0.00 0.00 0.00 78 1008.6
20260509123757 7 102 4.8 9.7 0.00 0.00 0.00 77 1008.7
20260509122753 7 131 4.8 9.7 0.00 0.00 0.00 78 1008.8
20260509121722 6 121 3.2 8.0 0.00 0.00 0.00 79 1008.9
20260509120735 6 122 3.2 6.4 0.00 0.00 0.00 81 1009.0
20260509115719 5 108 1.6 6.4 0.00 0.00 0.00 83 1009.0
20260509113554 5 102 1.6 4.8 0.00 0.00 0.00 84 1008.9
20260509112554 4 84 1.6 4.8 0.00 0.00 0.00 85 1009.0
20260509111548 3 58 1.6 4.8 0.00 0.00 0.00 87 1009.2
20260509110519 3 72 1.6 4.8 0.00 0.00 0.00 87 1009.1
20260509103300 2 115 1.6 6.4 0.00 0.00 0.00 90 1009.1
20260509102245 1 74 0.0 1.6 0.00 0.00 0.00 90 1009.1
20260509101227 1 53 0.0 3.2 0.00 0.00 0.00 90 1009.0
20260509100201 1 46 1.6 4.8 0.00 0.00 0.00 90 1008.9
20260509095156 1 35 1.6 4.8 0.00 0.00 0.00 91 1008.7
20260509094142 1 63 1.6 3.2 0.00 0.00 0.00 91 1008.8
20260509093112 1 46 0.0 3.2 0.00 0.03 0.00 91 1008.9
20260509092115 0 108 1.6 3.2 0.00 0.03 0.00 91 1008.9
20260509091122 0 76 0.0 3.2 0.00 0.03 0.00 91 1009.1
20260509090059 0 129 1.6 3.2 0.00 0.03 0.00 91 1009.2
20260509085118 0 89 1.6 3.2 0.00 0.03 0.00 91 1009.3
20260509084055 0 100 0.0 3.2 0.00 0.03 0.00 91 1009.3
20260509083104 0 39 1.6 1.6 0.00 0.03 0.00 91 1009.3
20260509082036 0 122 0.0 1.6 0.00 0.03 0.00 91 1009.4
20260509081054 1 39 0.0 3.2 0.00 0.03 0.00 90 1009.3
20260509080040 1 89 0.0 4.8 0.00 0.03 0.00 90 1009.4
20260509075101 1 56 0.0 4.8 0.00 0.03 0.00 89 1009.4
20260509074039 1 178 0.0 3.2 0.00 0.03 0.00 90 1009.5
20260509073048 1 46 0.0 3.2 0.00 0.03 0.00 89 1009.4
20260509072028 1 51 1.6 3.2 0.00 0.03 0.00 89 1009.3
20260509065901 1 53 0.0 3.2 0.00 0.05 0.00 89 1009.6
20260509064856 1 89 0.0 1.6 0.00 0.05 0.00 89 1009.5
20260509063855 1 140 0.0 1.6 0.00 0.05 0.00 89 1009.5
20260509062913 2 140 0.0 3.2 0.00 0.05 0.00 89 1009.6
20260509061930 2 28 0.0 3.2 0.00 0.05 0.00 89 1009.7
20260509054634 2 152 1.6 3.2 0.00 0.05 0.00 89 1010.2
20260509053645 2 89 1.6 3.2 0.00 0.05 0.00 89 1010.2
20260509052700 2 41 0.0 3.2 0.00 0.05 0.00 89 1010.4
20260509045401 2 135 0.0 1.6 0.00 0.05 0.00 89 1010.5
20260509044421 1 15 0.0 3.2 0.00 0.05 0.00 88 1010.5
20260509043402 2 79 0.0 3.2 0.00 0.05 0.00 87 1010.6
20260509042345 2 89 0.0 1.6 0.00 0.05 0.00 87 1010.7
20260509041327 2 28 0.0 3.2 0.00 0.05 0.00 86 1010.6
20260509040325 2 68 0.0 3.2 0.00 0.05 0.00 86 1010.5
20260509035349 2 53 0.0 3.2 0.00 0.05 0.05 85 1010.3
20260509034351 2 37 0.0 1.6 0.00 0.05 0.05 85 1010.3
20260509033401 3 46 0.0 1.6 0.00 0.05 0.05 84 1010.3
20260509032344 3 68 1.6 3.2 0.00 0.05 0.05 85 1010.4
20260509030214 3 107 3.2 9.7 0.00 0.05 0.05 86 1010.4
20260509025210 3 1 0.0 4.8 0.00 0.05 0.05 84 1010.3
20260509024212 3 1 0.0 4.8 0.00 0.05 0.05 83 1010.5
20260509023151 3 15 0.0 3.2 0.00 0.05 0.05 82 1010.4
20260509022124 3 28 0.0 3.2 0.00 0.05 0.05 82 1010.4
20260509021146 4 108 0.0 1.6 0.00 0.05 0.05 81 1010.4
20260509020207 4 46 0.0 1.6 0.00 0.05 0.05 80 1010.3
20260509015134 5 35 0.0 0.0 0.00 0.05 0.05 78 1010.2
20260509014151 5 46 0.0 1.6 0.00 0.05 0.05 77 1010.1
20260509013141 5 46 0.0 1.6 0.00 0.05 0.05 75 1010.0
20260509012147 6 20 0.0 0.0 0.00 0.05 0.05 73 1009.8
20260509011210 6 46 0.0 0.0 0.00 0.05 0.05 71 1009.7
20260509010204 7 35 0.0 0.0 0.00 0.05 0.05 69 1009.6
20260509004037 8 28 0.0 0.0 0.00 0.05 0.05 64 1009.3
20260509003012 8 46 0.0 0.0 0.00 0.05 0.05 63 1009.1
20260509001948 9 206 0.0 1.6 0.00 0.05 0.05 61 1009.1
20260509000922 10 314 0.0 0.0 0.00 0.05 0.05 57 1009.0